Language: 


Des rapports , des résumés tant et plus, au choix de chacun....


Données statistiques de la station
Quotidien Rapport Avril 27, 2017 Unités:  Métrique    Anglais   les deux
« Précédent Jour
Suivant Jour »
Quotidien Hebdomadaire Mensuel Annuel Actuel
  Haut: Bas: Moyen:
Température: 14.5 °C 1.0 °C 7.8 °C
Pt de rosée: 6.0 °C -2.0 °C 1.2 °C
Humidité: 95 % 38 % 65 %
Vitesse du vent: 16.9 km/h 0.0 km/h 5.1 km/h
Rafales: 276.7 km/h - -
Vent:- - WNW
Pression: 1018.2 hPa 1014.1 hPa -
Précipitation: 0.0 mm    
Historical Graphs
 
 
Données statistiques pour Avril 27, 2017
Heure Température Point de rosée Pression Vent Vitesse du vent Refales Humidité Pluie (taux horaire)
00:01 4.3 °C 1.0 °C 1016.8 hPa North 4.3 km/h 6.9 km/h 78 % 0.0 mm
00:06 4.3 °C 1.0 °C 1016.8 hPa NNW 2.1 km/h 7.9 km/h 79 % 0.0 mm
00:11 4.0 °C 1.0 °C 1016.8 hPa East 1.8 km/h 7.9 km/h 78 % 0.0 mm
00:16 3.6 °C 0.0 °C 1016.8 hPa Calm   5.8 km/h 77 % 0.0 mm
00:21 3.4 °C 0.0 °C 1016.8 hPa Calm   4.7 km/h 78 % 0.0 mm
00:26 3.1 °C 0.0 °C 1016.8 hPa Calm   3.5 km/h 78 % 0.0 mm
00:31 3.1 °C 0.0 °C 1016.8 hPa Calm   4.3 km/h 78 % 0.0 mm
00:36 3.1 °C 0.0 °C 1016.8 hPa NW 2.1 km/h 5.8 km/h 79 % 0.0 mm
00:41 3.2 °C 1.0 °C 1016.8 hPa WNW 2.6 km/h 5.8 km/h 80 % 0.0 mm
00:46 3.4 °C 1.0 °C 1016.8 hPa WNW 2.1 km/h 9.0 km/h 83 % 0.0 mm
00:51 3.5 °C 1.0 °C 1016.8 hPa Calm   9.0 km/h 83 % 0.0 mm
00:56 3.7 °C 1.0 °C 1016.8 hPa NNE 3.2 km/h 8.7 km/h 84 % 0.0 mm
01:01 3.8 °C 1.0 °C 1016.8 hPa West 3.2 km/h 8.7 km/h 84 % 0.0 mm
01:06 4.0 °C 1.0 °C 1016.8 hPa North 8.7 km/h 11.1 km/h 83 % 0.0 mm
01:11 4.1 °C 1.0 °C 1016.8 hPa WNW 4.0 km/h 11.1 km/h 83 % 0.0 mm
01:16 4.1 °C 1.0 °C 1016.8 hPa NNW 4.3 km/h 10.8 km/h 82 % 0.0 mm
01:21 4.2 °C 2.0 °C 1016.8 hPa North 5.0 km/h 11.9 km/h 82 % 0.0 mm
01:26 4.3 °C 2.0 °C 1016.8 hPa NNW 11.6 km/h 11.9 km/h 83 % 0.0 mm
01:31 4.4 °C 2.0 °C 1016.8 hPa WNW 7.6 km/h 11.6 km/h 82 % 0.0 mm
01:36 4.3 °C 2.0 °C 1016.8 hPa NNE 5.8 km/h 13.0 km/h 82 % 0.0 mm
01:41 4.2 °C 2.0 °C 1016.8 hPa NNW 9.7 km/h 13.0 km/h 82 % 0.0 mm
01:46 4.2 °C 2.0 °C 1016.8 hPa West 9.3 km/h 12.2 km/h 82 % 0.0 mm
01:51 4.2 °C 2.0 °C 1016.8 hPa North 8.7 km/h 13.7 km/h 82 % 0.0 mm
01:56 4.1 °C 1.0 °C 1016.8 hPa NNW 11.9 km/h 14.0 km/h 83 % 0.0 mm
02:02 4.1 °C 1.0 °C 1016.8 hPa NW 6.4 km/h 14.0 km/h 83 % 0.0 mm
02:07 4.0 °C 1.0 °C 1016.1 hPa NNW 11.9 km/h 276.7 km/h 83 % 0.0 mm
02:12 4.1 °C 1.0 °C 1016.1 hPa NNW 5.5 km/h 276.7 km/h 83 % 0.0 mm
02:17 4.1 °C 1.0 °C 1016.1 hPa North 2.6 km/h 13.0 km/h 82 % 0.0 mm
02:22 4.1 °C 1.0 °C 1016.1 hPa NNW 5.8 km/h 12.2 km/h 81 % 0.0 mm
02:27 4.3 °C 1.0 °C 1016.1 hPa NNW 2.6 km/h 12.6 km/h 80 % 0.0 mm
02:32 4.3 °C 1.0 °C 1016.1 hPa NNW 5.0 km/h 12.6 km/h 79 % 0.0 mm
03:05 3.7 °C 0.0 °C 1016.1 hPa Calm   5.0 km/h 77 % 0.0 mm
03:10 3.5 °C 0.0 °C 1016.1 hPa NNE 2.1 km/h 5.5 km/h 77 % 0.0 mm
03:15 3.5 °C 0.0 °C 1016.1 hPa Calm   5.5 km/h 77 % 0.0 mm
03:20 3.5 °C 0.0 °C 1016.1 hPa North 4.3 km/h 5.0 km/h 78 % 0.0 mm
03:25 3.3 °C 0.0 °C 1016.1 hPa Calm   5.0 km/h 77 % 0.0 mm
03:26 3.3 °C 0.0 °C 1016.1 hPa Calm   5.0 km/h 77 % 0.0 mm
03:31 3.0 °C 0.0 °C 1016.1 hPa NNW 4.0 km/h 5.5 km/h 77 % 0.0 mm
03:36 2.9 °C 0.0 °C 1016.8 hPa Calm   6.1 km/h 78 % 0.0 mm
03:41 3.0 °C 0.0 °C 1016.8 hPa North 5.0 km/h 6.1 km/h 79 % 0.0 mm
03:46 3.1 °C 0.0 °C 1016.8 hPa Calm   5.8 km/h 80 % 0.0 mm
03:51 3.0 °C 0.0 °C 1016.1 hPa Calm   5.0 km/h 80 % 0.0 mm
03:56 3.0 °C 0.0 °C 1016.1 hPa NW 2.6 km/h 5.8 km/h 80 % 0.0 mm
04:01 2.8 °C 0.0 °C 1016.1 hPa Calm   5.8 km/h 80 % 0.0 mm
04:06 2.5 °C 0.0 °C 1016.1 hPa Calm   4.7 km/h 79 % 0.0 mm
04:11 2.4 °C 0.0 °C 1016.1 hPa Calm     80 % 0.0 mm
04:16 2.6 °C 0.0 °C 1016.1 hPa Calm   6.1 km/h 83 % 0.0 mm
04:21 2.8 °C 1.0 °C 1016.1 hPa West 5.0 km/h 9.7 km/h 84 % 0.0 mm
04:26 2.6 °C 1.0 °C 1016.1 hPa Calm   9.7 km/h 84 % 0.0 mm
04:31 2.4 °C 0.0 °C 1016.1 hPa WSW 5.8 km/h 7.9 km/h 83 % 0.0 mm
04:36 2.3 °C 0.0 °C 1016.1 hPa Calm   5.8 km/h 83 % 0.0 mm
04:41 2.2 °C 0.0 °C 1016.1 hPa Calm   5.8 km/h 83 % 0.0 mm
04:47 2.1 °C 0.0 °C 1016.1 hPa Calm   4.0 km/h 83 % 0.0 mm
04:52 1.9 °C 0.0 °C 1016.1 hPa Calm   4.0 km/h 84 % 0.0 mm
04:57 1.8 °C -1.0 °C 1016.1 hPa Calm   4.0 km/h 84 % 0.0 mm
05:02 1.6 °C -1.0 °C 1016.1 hPa Calm   4.0 km/h 84 % 0.0 mm
05:07 1.6 °C 0.0 °C 1016.1 hPa Calm   4.0 km/h 85 % 0.0 mm
05:12 1.6 °C 0.0 °C 1016.1 hPa West 4.0 km/h 4.0 km/h 85 % 0.0 mm
05:17 1.5 °C 0.0 °C 1016.1 hPa Calm   4.0 km/h 85 % 0.0 mm
05:22 1.4 °C -1.0 °C 1016.1 hPa NNW 4.0 km/h 4.7 km/h 86 % 0.0 mm
05:27 1.8 °C 0.0 °C 1016.1 hPa WNW 6.1 km/h 6.1 km/h 88 % 0.0 mm
05:32 2.0 °C 1.0 °C 1016.1 hPa NW 4.7 km/h 6.1 km/h 88 % 0.0 mm
05:37 2.2 °C 1.0 °C 1016.1 hPa Calm   6.1 km/h 89 % 0.0 mm
05:42 2.1 °C 1.0 °C 1016.1 hPa NW 4.0 km/h 5.0 km/h 88 % 0.0 mm
05:47 2.0 °C 1.0 °C 1016.1 hPa WSW 5.8 km/h 5.8 km/h 88 % 0.0 mm
05:52 1.7 °C 0.0 °C 1016.1 hPa Calm   5.8 km/h 87 % 0.0 mm
05:57 1.5 °C 0.0 °C 1016.1 hPa Calm   5.8 km/h 87 % 0.0 mm
06:02 1.4 °C -1.0 °C 1016.1 hPa Calm   4.0 km/h 86 % 0.0 mm
06:07 1.1 °C -1.0 °C 1016.1 hPa Calm   4.0 km/h 87 % 0.0 mm
06:12 1.0 °C -1.0 °C 1016.1 hPa Calm     87 % 0.0 mm
06:17 1.1 °C -1.0 °C 1016.1 hPa Calm     87 % 0.0 mm
06:22 1.2 °C 0.0 °C 1016.1 hPa Calm     88 % 0.0 mm
06:28 1.2 °C 0.0 °C 1016.1 hPa NNE 4.0 km/h 7.9 km/h 89 % 0.0 mm
06:33 1.3 °C 0.0 °C 1016.1 hPa North 3.2 km/h 7.9 km/h 89 % 0.0 mm
06:38 1.4 °C 0.0 °C 1016.8 hPa NE 4.0 km/h 4.3 km/h 90 % 0.0 mm
06:43 1.5 °C 0.0 °C 1016.8 hPa Calm   5.0 km/h 90 % 0.0 mm
06:48 1.5 °C 1.0 °C 1016.8 hPa Calm   5.0 km/h 91 % 0.0 mm
06:53 1.5 °C 0.0 °C 1016.8 hPa Calm     90 % 0.0 mm
06:58 1.6 °C 1.0 °C 1016.8 hPa Calm     91 % 0.0 mm
07:03 1.9 °C 1.0 °C 1016.8 hPa NNW 1.8 km/h 7.9 km/h 92 % 0.0 mm
07:13 3.1 °C 3.0 °C 1016.8 hPa NW 5.8 km/h 11.9 km/h 95 % 0.0 mm
07:18 3.3 °C 3.0 °C 1016.8 hPa NW 8.7 km/h 11.9 km/h 95 % 0.0 mm
07:23 3.8 °C 3.0 °C 1016.8 hPa Calm   11.6 km/h 95 % 0.0 mm
07:28 4.1 °C 3.0 °C 1016.8 hPa West 9.3 km/h 10.1 km/h 94 % 0.0 mm
07:33 4.3 °C 3.0 °C 1016.8 hPa WNW 6.4 km/h 9.7 km/h 94 % 0.0 mm
07:38 4.3 °C 3.0 °C 1016.8 hPa North 7.9 km/h 9.7 km/h 93 % 0.0 mm
07:43 4.6 °C 4.0 °C 1016.8 hPa NNW 4.7 km/h 9.7 km/h 93 % 0.0 mm
07:48 4.7 °C 4.0 °C 1016.8 hPa West 7.6 km/h 9.0 km/h 93 % 0.0 mm
07:53 4.8 °C 4.0 °C 1018.2 hPa NNW 4.3 km/h 9.0 km/h 93 % 0.0 mm
07:58 5.6 °C 5.0 °C 1018.2 hPa North 4.3 km/h 9.0 km/h 94 % 0.0 mm
08:03 6.0 °C 5.0 °C 1018.2 hPa NNW 6.4 km/h 9.3 km/h 93 % 0.0 mm
08:08 6.5 °C 6.0 °C 1016.1 hPa WNW 4.3 km/h 9.3 km/h 93 % 0.0 mm
08:13 6.6 °C 6.0 °C 1016.1 hPa West 5.5 km/h 9.7 km/h 92 % 0.0 mm
08:18 6.6 °C 5.0 °C 1016.1 hPa WNW 5.5 km/h 9.7 km/h 90 % 0.0 mm
08:24 6.3 °C 5.0 °C 1016.1 hPa West 11.6 km/h 13.0 km/h 88 % 0.0 mm
08:29 6.3 °C 5.0 °C 1016.1 hPa West 5.0 km/h 13.0 km/h 88 % 0.0 mm
08:34 6.0 °C 4.0 °C 1016.1 hPa West 10.1 km/h 11.6 km/h 87 % 0.0 mm
08:39 6.0 °C 4.0 °C 1016.8 hPa West 3.2 km/h 11.6 km/h 87 % 0.0 mm
08:44 6.6 °C 5.0 °C 1016.8 hPa SW 4.3 km/h 10.1 km/h 88 % 0.0 mm
08:49 7.0 °C 5.0 °C 1016.8 hPa West 4.0 km/h 9.3 km/h 87 % 0.0 mm
08:54 7.2 °C 6.0 °C 1016.1 hPa West 4.0 km/h 9.0 km/h 87 % 0.0 mm
08:59 7.7 °C 6.0 °C 1016.1 hPa WNW 9.7 km/h 9.7 km/h 87 % 0.0 mm
09:04 8.0 °C 6.0 °C 1016.1 hPa WNW 4.3 km/h 12.2 km/h 85 % 0.0 mm
09:09 8.0 °C 5.0 °C 1016.8 hPa NW 11.9 km/h 12.6 km/h 81 % 0.0 mm
09:14 7.6 °C 4.0 °C 1016.8 hPa NNW 7.9 km/h 12.6 km/h 79 % 0.0 mm
09:19 7.4 °C 4.0 °C 1016.8 hPa North 4.3 km/h 10.5 km/h 78 % 0.0 mm
09:24 7.3 °C 4.0 °C 1016.8 hPa North 4.3 km/h 7.6 km/h 79 % 0.0 mm
09:29 7.4 °C 4.0 °C 1016.8 hPa WNW 5.0 km/h 6.9 km/h 79 % 0.0 mm
09:34 7.5 °C 5.0 °C 1016.8 hPa NNE 5.0 km/h 7.9 km/h 80 % 0.0 mm
09:39 7.9 °C 5.0 °C 1016.8 hPa North 5.8 km/h 7.9 km/h 81 % 0.0 mm
09:44 8.2 °C 5.0 °C 1016.8 hPa NNW 7.6 km/h 9.0 km/h 79 % 0.0 mm
09:49 8.1 °C 5.0 °C 1016.8 hPa South 5.0 km/h 9.0 km/h 78 % 0.0 mm
09:54 8.5 °C 5.0 °C 1016.8 hPa West 5.0 km/h 8.7 km/h 78 % 0.0 mm
09:59 9.0 °C 6.0 °C 1016.8 hPa West 4.3 km/h 9.7 km/h 77 % 0.0 mm
10:04 9.5 °C 6.0 °C 1016.8 hPa WNW 4.7 km/h 11.9 km/h 76 % 0.0 mm
10:09 9.8 °C 6.0 °C 1016.8 hPa WNW 4.3 km/h 11.9 km/h 74 % 0.0 mm
10:15 10.1 °C 6.0 °C 1016.8 hPa WNW 3.2 km/h 10.5 km/h 72 % 0.0 mm
10:20 10.6 °C 6.0 °C 1016.8 hPa NNE 7.2 km/h 9.7 km/h 71 % 0.0 mm
10:25 11.0 °C 6.0 °C 1016.8 hPa West 3.2 km/h 9.7 km/h 71 % 0.0 mm
10:30 11.6 °C 6.0 °C 1016.8 hPa NE 5.8 km/h 12.6 km/h 68 % 0.0 mm
10:35 11.5 °C 6.0 °C 1016.8 hPa WNW 7.9 km/h 12.6 km/h 66 % 0.0 mm
10:40 10.8 °C 3.0 °C 1016.8 hPa WNW 7.9 km/h 11.6 km/h 59 % 0.0 mm
10:45 10.9 °C 4.0 °C 1016.8 hPa West 6.9 km/h 11.6 km/h 60 % 0.0 mm
10:50 11.7 °C 5.0 °C 1016.8 hPa SSW 1.4 km/h 9.0 km/h 62 % 0.0 mm
10:55 12.5 °C 5.0 °C 1016.8 hPa WNW 4.3 km/h 10.5 km/h 59 % 0.0 mm
11:00 12.0 °C 4.0 °C 1016.8 hPa West 9.3 km/h 12.6 km/h 58 % 0.0 mm
11:05 12.5 °C 5.0 °C 1016.8 hPa North 6.9 km/h 13.0 km/h 58 % 0.0 mm
11:10 11.7 °C 3.0 °C 1016.8 hPa West 9.7 km/h 13.7 km/h 55 % 0.0 mm
11:15 11.3 °C 2.0 °C 1016.8 hPa West 6.9 km/h 13.7 km/h 52 % 0.0 mm
11:20 11.3 °C 2.0 °C 1016.8 hPa NW 10.5 km/h 12.6 km/h 52 % 0.0 mm
11:25 11.0 °C 1.0 °C 1016.8 hPa NNW 8.7 km/h 15.4 km/h 50 % 0.0 mm
11:30 10.1 °C 1.0 °C 1016.8 hPa WSW 10.1 km/h 15.4 km/h 51 % 0.0 mm
11:35 9.7 °C 1.0 °C 1016.8 hPa West 13.7 km/h 17.7 km/h 53 % 0.0 mm
11:40 9.2 °C 1.0 °C 1016.8 hPa WSW 11.6 km/h 17.7 km/h 54 % 0.0 mm
11:45 9.2 °C 1.0 °C 1016.8 hPa NW 8.7 km/h 17.7 km/h 57 % 0.0 mm
11:50 8.9 °C 2.0 °C 1016.8 hPa WSW 16.9 km/h 25.3 km/h 59 % 0.0 mm
11:55 8.9 °C 1.0 °C 1016.8 hPa WSW 2.6 km/h 25.3 km/h 57 % 0.0 mm
12:00 9.2 °C 2.0 °C 1016.8 hPa WNW 4.0 km/h 15.1 km/h 58 % 0.0 mm
12:05 9.5 °C 2.0 °C 1016.8 hPa West 4.0 km/h 9.3 km/h 59 % 0.0 mm
12:10 9.8 °C 2.0 °C 1016.8 hPa West 5.5 km/h 9.3 km/h 59 % 0.0 mm
12:15 10.0 °C 3.0 °C 1016.8 hPa West 4.3 km/h 7.9 km/h 59 % 0.0 mm
12:21 10.3 °C 3.0 °C 1016.8 hPa North 9.3 km/h 9.3 km/h 60 % 0.0 mm
12:26 10.2 °C 3.0 °C 1016.8 hPa WNW 6.9 km/h 10.5 km/h 59 % 0.0 mm
12:31 10.2 °C 3.0 °C 1016.8 hPa WNW 9.7 km/h 13.0 km/h 59 % 0.0 mm
12:36 9.8 °C 1.0 °C 1016.1 hPa WSW 5.8 km/h 16.6 km/h 55 % 0.0 mm
12:41 9.8 °C 1.0 °C 1016.1 hPa NNW 9.0 km/h 16.6 km/h 55 % 0.0 mm
12:46 9.8 °C 1.0 °C 1016.1 hPa NW 4.7 km/h 13.0 km/h 54 % 0.0 mm
12:51 9.8 °C 1.0 °C 1016.1 hPa North 8.7 km/h 13.0 km/h 53 % 0.0 mm
12:56 9.8 °C 1.0 °C 1016.1 hPa West 5.0 km/h 13.0 km/h 55 % 0.0 mm
13:01 9.9 °C 1.0 °C 1016.1 hPa WSW 9.7 km/h 13.0 km/h 55 % 0.0 mm
13:05 9.9 °C 1.0 °C 1016.1 hPa NNW 9.0 km/h 12.6 km/h 55 % 0.0 mm
13:10 9.8 °C 1.0 °C 1016.8 hPa WNW 5.8 km/h 12.6 km/h 54 % 0.0 mm
13:15 9.9 °C 1.0 °C 1016.8 hPa North 4.3 km/h 14.0 km/h 54 % 0.0 mm
13:20 10.1 °C 1.0 °C 1016.8 hPa NNW 10.5 km/h 14.0 km/h 54 % 0.0 mm
13:25 10.2 °C 1.0 °C 1016.1 hPa North 6.4 km/h 13.7 km/h 53 % 0.0 mm
13:30 10.4 °C 1.0 °C 1016.1 hPa West 6.1 km/h 12.2 km/h 53 % 0.0 mm
13:35 10.5 °C 1.0 °C 1016.1 hPa NNW 8.7 km/h 12.2 km/h 52 % 0.0 mm
13:40 10.8 °C 2.0 °C 1016.8 hPa NNW 9.0 km/h 10.8 km/h 53 % 0.0 mm
13:45 10.8 °C 1.0 °C 1016.8 hPa NNE 4.0 km/h 14.0 km/h 52 % 0.0 mm
13:50 11.0 °C 2.0 °C 1016.8 hPa WNW 7.9 km/h 14.0 km/h 52 % 0.0 mm
13:55 11.9 °C 2.0 °C 1016.8 hPa NNW 11.9 km/h 12.6 km/h 51 % 0.0 mm
14:00 12.0 °C 2.0 °C 1016.8 hPa WNW 9.7 km/h 12.6 km/h 50 % 0.0 mm
14:05 13.4 °C 3.0 °C 1016.8 hPa NW 6.9 km/h 15.8 km/h 49 % 0.0 mm
14:06 13.7 °C 3.0 °C 1016.8 hPa North 6.9 km/h 15.8 km/h 48 % 0.0 mm
14:11 13.6 °C 3.0 °C 1016.8 hPa WNW 10.5 km/h 16.6 km/h 48 % 0.0 mm
14:16 12.5 °C 2.0 °C 1016.8 hPa NNW 11.9 km/h 16.6 km/h 47 % 0.0 mm
14:21 12.0 °C 1.0 °C 1016.8 hPa WNW 1.8 km/h 16.6 km/h 47 % 0.0 mm
14:26 11.6 °C 1.0 °C 1016.8 hPa NW 6.1 km/h 16.9 km/h 47 % 0.0 mm
14:31 11.5 °C 1.0 °C 1016.8 hPa WNW 8.7 km/h 16.9 km/h 47 % 0.0 mm
14:36 11.9 °C 1.0 °C 1016.8 hPa NW 6.9 km/h 14.0 km/h 47 % 0.0 mm
14:41 12.0 °C 1.0 °C 1016.8 hPa NNW 8.7 km/h 16.9 km/h 46 % 0.0 mm
14:46 11.9 °C 1.0 °C 1016.8 hPa NW 5.8 km/h 16.9 km/h 47 % 0.0 mm
14:51 11.8 °C 1.0 °C 1018.2 hPa NW 10.1 km/h 14.0 km/h 47 % 0.0 mm
14:56 11.8 °C 1.0 °C 1018.2 hPa NNE 1.4 km/h 14.0 km/h 47 % 0.0 mm
15:01 11.8 °C 1.0 °C 1018.2 hPa WNW 6.1 km/h 14.0 km/h 47 % 0.0 mm
15:06 11.7 °C 1.0 °C 1016.8 hPa NNW 9.0 km/h 13.7 km/h 46 % 0.0 mm
15:11 11.5 °C 1.0 °C 1016.8 hPa NNW 5.5 km/h 15.8 km/h 46 % 0.0 mm
15:16 11.3 °C 0.0 °C 1016.8 hPa NNW 5.5 km/h 15.8 km/h 46 % 0.0 mm
15:21 11.2 °C 0.0 °C 1016.8 hPa WNW 9.0 km/h 11.9 km/h 46 % 0.0 mm
15:26 11.5 °C 1.0 °C 1016.8 hPa NW 6.9 km/h 12.2 km/h 46 % 0.0 mm
15:31 11.9 °C 1.0 °C 1016.8 hPa SSW 9.7 km/h 15.1 km/h 46 % 0.0 mm
15:36 12.0 °C 1.0 °C 1016.8 hPa North 11.6 km/h 16.6 km/h 46 % 0.0 mm
15:41 12.2 °C 1.0 °C 1016.8 hPa West 13.0 km/h 16.6 km/h 45 % 0.0 mm
15:46 11.9 °C 1.0 °C 1016.8 hPa NNW 5.8 km/h 16.3 km/h 46 % 0.0 mm
15:51 12.9 °C 2.0 °C 1016.8 hPa SSW 8.7 km/h 16.3 km/h 46 % 0.0 mm
15:56 13.5 °C 2.0 °C 1016.8 hPa North 10.5 km/h 15.8 km/h 45 % 0.0 mm
16:01 14.2 °C 3.0 °C 1016.8 hPa NNW 9.0 km/h 15.8 km/h 44 % 0.0 mm
16:06 14.0 °C 2.0 °C 1016.8 hPa NNW 5.5 km/h 17.7 km/h 44 % 0.0 mm
16:11 14.0 °C 2.0 °C 1016.8 hPa WNW 4.7 km/h 17.7 km/h 43 % 0.0 mm
16:16 13.3 °C 1.0 °C 1016.8 hPa WNW 9.3 km/h 13.0 km/h 43 % 0.0 mm
16:21 12.5 °C 0.0 °C 1016.8 hPa WNW 8.7 km/h 13.7 km/h 42 % 0.0 mm
16:26 12.5 °C 0.0 °C 1016.8 hPa WNW 6.1 km/h 13.7 km/h 42 % 0.0 mm
16:32 12.9 °C 1.0 °C 1016.8 hPa NNE 5.8 km/h 12.6 km/h 42 % 0.0 mm
16:37 13.2 °C 1.0 °C 1016.8 hPa West 4.0 km/h 12.6 km/h 41 % 0.0 mm
16:42 13.5 °C 1.0 °C 1016.8 hPa NW 12.2 km/h 13.7 km/h 41 % 0.0 mm
16:47 13.0 °C 0.0 °C 1016.8 hPa WNW 12.6 km/h 13.7 km/h 40 % 0.0 mm
16:52 12.8 °C 0.0 °C 1016.1 hPa West 11.6 km/h 13.0 km/h 41 % 0.0 mm
16:57 12.2 °C -1.0 °C 1016.1 hPa West 9.0 km/h 15.1 km/h 41 % 0.0 mm
17:02 12.1 °C -1.0 °C 1016.1 hPa WNW 4.0 km/h 15.1 km/h 40 % 0.0 mm
17:03 11.9 °C -1.0 °C 1016.1 hPa WNW 7.9 km/h 13.7 km/h 41 % 0.0 mm
17:08 11.8 °C -1.0 °C 1016.1 hPa NNE 5.0 km/h 13.7 km/h 41 % 0.0 mm
17:13 12.3 °C 0.0 °C 1016.1 hPa ESE 4.7 km/h 14.0 km/h 41 % 0.0 mm
17:18 13.0 °C 0.0 °C 1016.1 hPa WNW 8.7 km/h 14.0 km/h 41 % 0.0 mm
17:23 13.5 °C 1.0 °C 1016.1 hPa North 6.4 km/h 12.6 km/h 40 % 0.0 mm
17:28 13.7 °C 1.0 °C 1016.1 hPa North 8.7 km/h 13.7 km/h 40 % 0.0 mm
17:30 13.8 °C 1.0 °C 1016.1 hPa WNW 6.1 km/h 13.7 km/h 40 % 0.0 mm
17:35 14.3 °C 1.0 °C 1016.1 hPa WSW 6.1 km/h 11.9 km/h 39 % 0.0 mm
17:40 14.5 °C 1.0 °C 1016.1 hPa WNW 7.2 km/h 10.5 km/h 39 % 0.0 mm
17:45 14.4 °C 1.0 °C 1016.1 hPa NW 7.9 km/h 14.0 km/h 39 % 0.0 mm
17:50 14.0 °C 0.0 °C 1016.1 hPa Calm   14.0 km/h 38 % 0.0 mm
17:55 14.3 °C 0.0 °C 1015.1 hPa WNW 13.7 km/h 13.7 km/h 38 % 0.0 mm
18:00 14.2 °C 0.0 °C 1015.1 hPa NNW 8.7 km/h 16.3 km/h 38 % 0.0 mm
18:05 13.8 °C 0.0 °C 1015.1 hPa West 4.0 km/h 16.3 km/h 38 % 0.0 mm
18:10 13.8 °C 0.0 °C 1015.1 hPa North 5.8 km/h 12.2 km/h 39 % 0.0 mm
18:15 12.9 °C 0.0 °C 1015.1 hPa NNE 2.1 km/h 16.3 km/h 39 % 0.0 mm
18:20 12.5 °C -1.0 °C 1015.1 hPa North 9.0 km/h 16.3 km/h 39 % 0.0 mm
18:30 11.4 °C -2.0 °C 1015.1 hPa NNW 2.6 km/h 11.6 km/h 40 % 0.0 mm
18:35 11.2 °C -2.0 °C 1015.1 hPa NNE 1.8 km/h 11.6 km/h 40 % 0.0 mm
18:40 11.0 °C -2.0 °C 1015.1 hPa North 4.7 km/h 11.9 km/h 40 % 0.0 mm
18:45 10.8 °C -2.0 °C 1015.1 hPa West 3.2 km/h 11.9 km/h 41 % 0.0 mm
18:50 10.7 °C -2.0 °C 1015.1 hPa North 4.3 km/h 9.7 km/h 42 % 0.0 mm
18:55 10.6 °C -2.0 °C 1015.1 hPa WNW 5.0 km/h 9.7 km/h 42 % 0.0 mm
19:01 10.5 °C -1.0 °C 1015.1 hPa North 6.4 km/h 8.7 km/h 43 % 0.0 mm
19:06 10.4 °C -2.0 °C 1015.1 hPa WNW 3.2 km/h 9.7 km/h 43 % 0.0 mm
19:11 10.3 °C -2.0 °C 1015.1 hPa WNW 6.1 km/h 9.7 km/h 43 % 0.0 mm
19:16 10.2 °C -1.0 °C 1015.1 hPa West 2.6 km/h 8.7 km/h 44 % 0.0 mm
19:21 10.2 °C -1.0 °C 1016.1 hPa West 6.1 km/h 13.0 km/h 45 % 0.0 mm
19:26 10.2 °C -1.0 °C 1016.1 hPa WNW 11.9 km/h 13.0 km/h 46 % 0.0 mm
19:31 10.2 °C -1.0 °C 1016.1 hPa WNW 4.7 km/h 12.6 km/h 46 % 0.0 mm
19:36 10.2 °C 0.0 °C 1015.1 hPa WNW 6.4 km/h 11.9 km/h 47 % 0.0 mm
19:41 10.1 °C -1.0 °C 1015.1 hPa NW 4.0 km/h 10.5 km/h 47 % 0.0 mm
19:46 10.1 °C -1.0 °C 1015.1 hPa WSW 5.5 km/h 12.6 km/h 47 % 0.0 mm
19:51 9.9 °C -1.0 °C 1015.1 hPa WNW 5.5 km/h 13.0 km/h 47 % 0.0 mm
19:56 9.9 °C -1.0 °C 1015.1 hPa WSW 5.0 km/h 13.0 km/h 47 % 0.0 mm
20:01 9.7 °C -1.0 °C 1015.1 hPa WNW 4.3 km/h 15.4 km/h 47 % 0.0 mm
20:06 9.6 °C -1.0 °C 1015.1 hPa NNW 6.4 km/h 15.4 km/h 47 % 0.0 mm
20:11 9.5 °C -1.0 °C 1015.1 hPa West 9.0 km/h 13.0 km/h 48 % 0.0 mm
20:16 9.4 °C -1.0 °C 1015.1 hPa WNW 6.1 km/h 15.4 km/h 48 % 0.0 mm
20:21 9.3 °C -1.0 °C 1015.1 hPa West 7.6 km/h 13.7 km/h 49 % 0.0 mm
20:26 9.3 °C -1.0 °C 1015.1 hPa WNW 7.9 km/h 11.9 km/h 49 % 0.0 mm
20:31 9.2 °C -1.0 °C 1015.1 hPa South 8.7 km/h 10.1 km/h 49 % 0.0 mm
20:36 9.0 °C -1.0 °C 1016.1 hPa West 3.2 km/h 9.3 km/h 50 % 0.0 mm
20:41 8.9 °C 0.0 °C 1016.1 hPa NW 4.3 km/h 10.8 km/h 51 % 0.0 mm
20:46 8.7 °C -1.0 °C 1016.1 hPa NW 4.7 km/h 14.0 km/h 51 % 0.0 mm
20:51 8.6 °C 0.0 °C 1016.1 hPa West 9.7 km/h 15.4 km/h 52 % 0.0 mm
20:57 8.5 °C 0.0 °C 1016.1 hPa WNW 5.5 km/h 16.6 km/h 53 % 0.0 mm
21:02 8.4 °C 0.0 °C 1016.1 hPa West 6.4 km/h 16.6 km/h 54 % 0.0 mm
21:07 8.4 °C 0.0 °C 1015.1 hPa West 6.1 km/h 13.7 km/h 55 % 0.0 mm
21:12 8.3 °C 0.0 °C 1015.1 hPa West 11.6 km/h 13.7 km/h 55 % 0.0 mm
21:17 8.2 °C 0.0 °C 1015.1 hPa West 5.8 km/h 12.2 km/h 55 % 0.0 mm
21:22 8.2 °C 0.0 °C 1016.1 hPa West 4.3 km/h 10.5 km/h 55 % 0.0 mm
21:27 8.1 °C 0.0 °C 1016.1 hPa WNW 4.0 km/h 10.1 km/h 55 % 0.0 mm
21:32 8.1 °C 0.0 °C 1016.1 hPa West 6.4 km/h 10.1 km/h 56 % 0.0 mm
21:37 8.1 °C 0.0 °C 1016.1 hPa West 5.0 km/h 6.4 km/h 56 % 0.0 mm
21:42 8.0 °C 0.0 °C 1016.1 hPa West 5.0 km/h 6.9 km/h 56 % 0.0 mm
21:47 7.9 °C 0.0 °C 1016.1 hPa Calm   6.4 km/h 57 % 0.0 mm
21:52 7.9 °C 0.0 °C 1015.1 hPa West 2.1 km/h 6.4 km/h 58 % 0.0 mm
21:57 7.8 °C 0.0 °C 1015.1 hPa Calm   6.4 km/h 59 % 0.0 mm
22:02 7.7 °C 1.0 °C 1015.1 hPa Calm   4.3 km/h 60 % 0.0 mm
22:07 7.7 °C 1.0 °C 1015.1 hPa Calm   2.1 km/h 60 % 0.0 mm
22:12 7.6 °C 1.0 °C 1015.1 hPa Calm   2.1 km/h 60 % 0.0 mm
22:17 7.6 °C 1.0 °C 1015.1 hPa WSW 5.5 km/h 6.1 km/h 61 % 0.0 mm
22:22 7.5 °C 1.0 °C 1015.1 hPa West 5.8 km/h 6.4 km/h 61 % 0.0 mm
22:27 7.5 °C 1.0 °C 1015.1 hPa West 5.5 km/h 6.9 km/h 62 % 0.0 mm
22:32 7.5 °C 1.0 °C 1015.1 hPa Calm   7.6 km/h 62 % 0.0 mm
22:37 7.5 °C 1.0 °C 1015.1 hPa Calm   7.6 km/h 62 % 0.0 mm
22:42 7.5 °C 1.0 °C 1015.1 hPa Calm   6.4 km/h 63 % 0.0 mm
22:47 7.4 °C 1.0 °C 1015.1 hPa Calm   4.7 km/h 63 % 0.0 mm
22:52 7.4 °C 1.0 °C 1015.1 hPa Calm   4.7 km/h 64 % 0.0 mm
22:58 7.3 °C 1.0 °C 1015.1 hPa Calm     63 % 0.0 mm
23:03 7.3 °C 1.0 °C 1015.1 hPa Calm     64 % 0.0 mm
23:08 7.3 °C 1.0 °C 1015.1 hPa Calm   5.0 km/h 64 % 0.0 mm
23:13 7.2 °C 1.0 °C 1015.1 hPa Calm   5.0 km/h 64 % 0.0 mm
23:18 7.1 °C 1.0 °C 1015.1 hPa Calm   5.8 km/h 65 % 0.0 mm
23:23 7.0 °C 1.0 °C 1015.1 hPa West 3.2 km/h 5.8 km/h 65 % 0.0 mm
23:28 6.9 °C 1.0 °C 1015.1 hPa West 2.1 km/h 5.5 km/h 66 % 0.0 mm
23:34 6.8 °C 1.0 °C 1015.1 hPa West 2.6 km/h 5.5 km/h 66 % 0.0 mm
23:39 6.7 °C 1.0 °C 1015.1 hPa Calm   5.0 km/h 67 % 0.0 mm
23:44 6.6 °C 1.0 °C 1015.1 hPa Calm   4.3 km/h 67 % 0.0 mm
23:49 6.5 °C 1.0 °C 1015.1 hPa West 4.7 km/h 4.7 km/h 68 % 0.0 mm
23:54 6.5 °C 1.0 °C 1014.1 hPa Calm   5.5 km/h 68 % 0.0 mm
23:59 6.5 °C 1.0 °C 1014.1 hPa Calm   5.5 km/h 68 % 0.0 mm
Le Gheer Warneton
Courtoisie de Weather Underground - 2.25 mb

Mise a jour : 16-12-17 12:12:11
Généré par Cumulus 1.9.4 (1099)